2021-061D (49006 NORAD) Tracking and Keplerian Element Data

This shows tracking and keplerian element data for the satellite.

Feedback or suggestion? Click here.




ElementValue
Catalog49006
Name2021-061D
Epoch Orbit408
Epoch Day211.21515095
Epoch Year2021
RAAN278.0272
Inclination97.5362
Eccentricity0.0012902
Argument of Perigee183.4738
Mean Anonmoly261.6948
Mean Motion15.1001811
Decay Rate5.23E-06
L11 49006U 21061D 21211.21515095 .00000523 00000-0 36069-4 0 9992
L22 49006 97.5362 278.0272 0012902 183.4738 261.6948 15.10018110 4085

Live tracking and technical data element details for 2021-061D (NORAD 49006). 2021-061D can be tracked NOW for your location showing map with azimuth and elevation plus other details from your city location.

Track the satellite on the map from your city or location and see movement details for azimuth, elevation, latitude, longitude, range, height, and movement on the map or in text.







IsCatalogInMostPopularTable: catalog: 49006, numindb: 3
Update: records affected: 1



GetName: 49006 2021-061D

Hit Count: updated at: Sat, 31 Jul 2021 15:03:10 GMT